Flag for U.S.A. Weather past 2 weeks in Baltimore, Maryland, U.S.A.

Now
38 °F

Light rain. Fog.


Feels Like: 38 °F
Forecast: 22 / 36 °F
Wind: No wind

Location: Baltimore-Washington International Airport

Current Time: Mar 5, 2015 at 1:52:12 AM

Latest Report: Mar 5, 2015 at 12:54 AM


Visibility: 4 mi

Pressure: 29.96 "Hg

Humidity: 100%

Dew point: 38 °F

Location of BaltimoreLocation

Historic Weather in Baltimore — Graph

°F

Baltimore temperature yesterday

Maximum temperature yesterday: 45 °F (at 2:54 PM)
Minimum temperature yesterday: 37 °F (at 3:54 AM)
Average temperature yesterday: 40 °F

Past Weeks' High & Low Weather Summary

 TemperatureHumidityPressure
High46 °F (Feb 22, 2:54 PM)100% (Mar 1, 11:58 PM)30.86 "Hg (Mar 1, 11:58 PM)
Low1 °F (Feb 20, 6:54 AM)26% (Feb 28, 2:54 PM)29.72 "Hg (Feb 18, 4:54 PM)
Average25 °F64%30.22 "Hg
* Reported Feb 18 12:54 AM — Mar 5 12:54 AM, Baltimore, Weather by CustomWeather, © 2015

Note: Actual official high and low records may vary slightly from our data, if they occured in-between our weather recording intervals... More about our weather records

Advertising

Baltimore weather history for previous 24 hours

 ConditionsComfort  
Time TempWeatherWind HumidityBarometerVisibility
12:54 AM
Thu, Mar 5
38 °FLight rain. Fog.No wind100%29.96 "Hg4 mi
11:54 PM
Wed, Mar 4
39 °FLight rain. Fog.No wind96%29.94 "Hg2 mi
10:54 PM41 °FLight rain. Fog.3 mph96%29.95 "Hg2 mi
9:54 PM42 °FLight rain. Fog.No wind96%29.94 "Hg2 mi
8:54 PM41 °FRain. Fog.No wind96%29.93 "Hg1 mi
7:54 PM41 °FLight rain. Fog.3 mph96%29.91 "Hg1 mi
6:54 PM40 °FLight rain. Fog.3 mph97%29.88 "Hg1 mi
5:59 PM39 °FLight rain. Fog.2 mph100%29.89 "Hg0 mi
4:54 PM42 °FLight rain. Fog.No wind96%29.88 "Hg1 mi
4:02 PM45 °FLight rain. Fog.No wind93%29.89 "Hg2 mi
3:54 PM44 °FLight rain. Fog.No wind93%29.88 "Hg2 mi
2:54 PM45 °FLight rain. Fog.No wind90%29.87 "Hg4 mi
1:54 PM44 °FLight rain. Fog.3 mph89%29.86 "Hg5 mi
12:54 PM43 °FLight rain. Fog.3 mph89%29.86 "Hg5 mi
11:54 AM43 °FFog.3 mph86%29.90 "Hg5 mi
10:54 AM41 °FFog.No wind89%29.91 "Hg4 mi
9:54 AM40 °FFog.5 mph93%29.92 "Hg5 mi
8:54 AM39 °FFog.3 mph93%29.93 "Hg2 mi
7:54 AM39 °FFog.5 mph93%29.90 "Hg3 mi
6:54 AM38 °FFog.6 mph93%29.86 "Hg3 mi
5:54 AM38 °FFog.7 mph93%29.84 "Hg5 mi
4:54 AM38 °FMostly cloudy.6 mph90%29.82 "Hg7 mi
3:54 AM37 °FLight rain. Overcast.7 mph93%29.82 "Hg8 mi
3:00 AM37 °FOvercast.6 mph87%29.84 "Hg10 mi
1:54 AM38 °FMostly cloudy.9 mph90%29.82 "Hg10 mi
Weather by CustomWeather, © 2015

See weather overviewHow to use our weather pages